Date,TemperatureHighF,TemperatureAvgF,TemperatureLowF,DewpointHighF,DewpointAvgF,DewpointLowF,HumidityHigh,HumidityAvg,HumidityLow,PressureMaxIn,PressureMinIn,WindSpeedMaxMPH,WindSpeedAvgMPH,GustSpeedMaxMPH,PrecipitationSumIn
2013-3-1,78,61,47,37,27,23,47,29,15,30.37,30.24,0,0,0,0.00
2013-3-2,81,63,50,41,28,19,45,30,12,30.31,30.15,0,0,0,0.00
2013-3-3,71,58,47,39,32,25,63,39,24,30.17,30.02,0,0,0,0.00
2013-3-4,58,48,43,44,39,34,78,72,61,30.14,30.04,0,0,0,0.00
2013-3-5,49,49,48,42,42,42,80,77,76,30.13,30.10,0,0,0,0.00
2013-3-6,59,49,44,43,40,38,81,72,50,30.17,30.04,0,0,0,0.00
2013-3-7,52,47,41,43,40,35,81,77,67,30.05,29.89,0,0,0,0.00
2013-3-8,43,41,38,37,36,32,81,81,79,29.89,29.80,0,0,0,0.00
2013-3-13,61,57,54,41,36,33,50,44,42,30.17,30.13,0,0,0,0.00
2013-3-14,58,57,56,38,37,36,51,48,46,30.15,30.14,0,0,0,0.00
2013-3-17,72,63,48,51,45,40,75,53,36,30.03,29.97,0,0,0,0.00
2013-3-18,70,54,45,50,44,38,82,69,47,30.11,30.01,0,0,0,0.00
2013-3-19,62,50,45,50,43,39,82,78,62,30.14,30.07,0,0,0,0.00
2013-3-24,56,53,51,42,39,36,59,58,56,30.02,30.00,0,0,0,0.00
2013-3-25,69,52,47,41,35,32,63,53,32,30.04,29.99,0,0,0,0.00
2013-3-26,76,59,47,48,39,36,66,50,27,30.02,29.94,0,0,0,0.00
2013-3-27,73,57,45,47,41,37,75,57,32,30.09,29.97,0,0,0,0.00
2013-3-28,76,59,44,51,43,37,79,58,27,30.12,30.05,0,0,0,0.00
2013-3-29,80,62,45,50,43,37,73,54,27,30.17,30.08,0,0,0,0.00
2013-3-30,76,62,49,50,45,41,77,57,31,30.17,30.08,0,0,0,0.00
2013-3-31,71,56,44,50,44,38,80,66,45,30.16,30.07,0,0,0,0.00